SCP
2 2 2 1 1 1 1 1 1 1 0 0 0 0 0 1 1 2 2 2 1 1 0 0 0 0 0 0 0 0 0 0 0 0 0 0 0 0 0 0 0 0 0
2 2 2 2 1 1 1 1 1 1 1 0 1 0 0 1 2 2 2 2 1 1 0 0 0 0 0 0 0 0 0 0 0 0 0 0 0 0 0 0 0 0 0
2 2 2 2 2 1 1 1 1 1 1 1 1 1 1 2 2 3 3 2 2 1 1 0 0 0 0 0 0 0 0 0 0 0 0 0 0 0 0 0 0 0 0
3 3 3 3 2 2 2 2 2 2 2 2 2 2 2 2 2 3 3 2 2 1 1 0 0 0 0 0 0 0 0 0 0 0 0 0 0 0 0 0 0 0 0
3 3 4 4 3 3 3 3 3 3 3 3 3 3 2 2 2 2 2 2 1 1 1 0 0 0 0 0 0 0 0 0 0 0 0 0 0 0 0 0 0 0 0
3 4 5 5 4 4 3 3 4 4 4 4 3 3 2 1 1 1 1 1 1 1 0 0 0 0 0 0 0 0 0 0 0 0 0 0 0 0 0 0 0 0 0
4 4 5 6 5 4 4 3 3 4 4 3 2 2 1 1 0 0 0 0 0 0 0 0 0 0 0 0 0 0 0 0 0 0 0 0 0 0 0 0 0 0 0
4 4 4 4 5 4 4 4 3 3 3 2 2 2 1 1 0 0 0 0 0 0 0 0 0 0 0 0 0 0 0 0 0 0 0 0 0 0 0 0 0 0 0
4 4 3 3 3 4 4 5 4 3 2 2 2 2 1 1 1 0 0 0 0 0 0 0 0 0 0 0 0 0 0 0 0 0 0 0 0 0 0 0 0 0 0
3 3 3 2 2 3 5 6 4 2 2 2 2 1 1 1 1 0 0 0 0 0 0 0 0 0 0 0 0 0 0 0 0 0 0 0 0 0 0 0 0 0 0
2 3 3 2 3 3 5 5 3 1 1 1 1 1 1 1 0 0 0 0 0 0 0 0 0 0 0 0 0 0 0 0 0 0 0 0 0 0 0 0 0 0 0
1 2 2 3 3 3 4 3 2 1 1 1 1 1 1 1 0 0 0 0 0 0 0 0 0 0 0 0 0 0 0 0 0 0 0 0 0 0 0 0 0 0 0
1 1 1 2 2 2 2 2 1 1 1 1 1 1 1 1 0 0 0 0 0 0 0 0 0 0 0 0 0 0 0 0 0 0 0 0 0 0 0 0 0 0 0
1 1 1 1 1 1 1 0 0 0 0 0 1 1 1 0 0 0 0 0 0 0 0 0 0 0 0 0 0 0 0 0 0 0 0 0 0 0 0 0 0 0 0
1 1 1 0 0 0 0 0 0 0 0 0 0 0 0 0 0 0 0 0 0 0 0 0 0 0 0 0 0 0 0 0 0 0 0 0 0 0 0 0 0 0 0
1 0 0 0 0 0 0 0 0 0 0 0 0 0 0 0 0 0 0 0 0 0 0 0 0 0 0 0 0 0 0 0 0 0 0 0 0 0 0 0 0 0 0
0 0 0 0 0 0 0 0 0 0 0 0 0 0 0 0 0 0 0 0 0 0 0 0 0 0 0 0 0 0 0 0 0 0 0 0 0 0 0 0 0 0 0
0 0 0 0 0 0 0 0 0 0 0 0 0 0 0 0 0 0 0 0 0 0 0 0 0 0 0 0 0 0 0 0 0 0 0 0 0 0 0 0 0 0 0
0 0 0 0 0 0 0 0 0 0 0 0 0 0 0 0 0 0 0 0 0 0 0 0 0 0 0 0 0 0 0 0 0 0 0 0 0 0 0 0 0 0 0
0 0 0 0 0 0 0 0 0 0 0 0 0 0 0 0 0 0 0 0 0 0 0 0 0 0 0 0 0 0 0 0 0 0 0 0 0 0 0 0 0 0 0
0 0 0 0 0 0 0 0 0 0 0 0 0 0 0 0 0 0 0 0 0 0 0 0 0 0 0 0 0 0 0 0 0 0 0 0 0 0 0 0 0 0 0
0 0 0 0 0 0 0 0 0 0 0 0 0 0 0 0 0 0 0 0 0 0 0 0 0 0 0 0 0 0 0 0 0 0 0 0 0 0 0 0 0 0 0
0 0 0 0 0 0 0 0 0 0 0 0 0 0 0 0 0 0 0 0 0 0 0 0 0 0 0 0 0 0 0 0 0 0 0 0 0 0 0 0 0 0 0
0 0 0 0 0 0 0 0 0 0 0 0 0 0 0 0 0 0 0 0 0 0 0 0 0 0 0 0 0 0 0 0 0 0 0 0 0 0 0 0 0 0 0
0 0 0 0 0 0 0 0 0 0 0 0 0 0 0 0 0 0 0 0 0 0 0 0 0 0 0 0 0 0 0 0 0 0 0 0 0 0 0 0 0 0 0
0 0 0 0 0 0 0 0 0 0 0 0 0 0 0 0 0 0 0 0 0 0 0 0 0 0 0 0 0 0 0 0 0 0 0 0 0 0 0 0 0 0 0
Wind_Speed
9 8 8 8 7 7 7 7 7 6 7 8 8 8 7 6 6 5 5 5 5 4 3 4 4 3 2 1 1 1 2 3 3 3 2 2 2 3 3 3 4 4 5
10 8 8 8 7 7 7 7 7 7 7 8 8 8 8 8 7 7 7 6 6 6 5 5 5 4 4 3 2 2 2 3 3 4 3 2 3 4 4 4 4 4 4
9 9 8 8 8 8 8 7 7 7 7 7 8 9 8 8 8 8 7 7 7 7 7 6 6 5 5 4 4 3 3 3 3 3 4 3 3 3 3 3 4 3 5
9 9 10 9 9 9 8 7 7 7 7 8 8 8 8 8 8 8 7 7 7 6 7 7 7 7 7 6 5 5 4 3 3 3 4 3 3 3 2 3 4 3 4
10 10 10 9 7 7 6 7 7 7 8 8 7 7 7 7 8 8 8 8 7 7 7 7 7 9 10 8 6 6 5 4 4 4 4 3 3 3 3 3 4 4 4
9 10 8 7 7 6 6 6 6 7 7 7 8 7 7 6 8 11 9 7 7 7 7 6 7 8 10 13 13 11 10 7 6 5 5 5 6 5 4 4 3 3 4
7 6 6 6 7 8 8 7 8 8 7 7 7 7 7 7 9 10 11 7 6 7 7 6 6 6 7 6 9 11 12 14 13 8 8 9 7 7 5 5 5 6 7
4 3 3 4 5 5 5 6 6 5 6 6 7 7 7 8 10 11 11 8 7 7 7 7 7 6 5 5 5 6 7 8 10 9 9 10 10 8 8 8 7 6 6
3 2 2 3 3 3 3 4 4 4 5 6 6 7 7 6 9 10 9 4 4 6 5 5 6 6 7 8 5 6 7 8 10 13 14 14 15 14 9 4 4 5 7
3 2 2 3 3 3 3 3 2 3 4 4 4 4 5 5 7 10 9 3 4 4 3 4 7 7 7 7 6 6 8 8 6 7 8 11 11 12 14 10 8 8 6
3 3 4 3 2 2 2 2 2 2 2 2 2 2 3 4 5 8 9 5 5 4 4 4 4 6 7 7 7 6 10 9 6 6 6 7 7 7 8 9 9 9 9
5 5 5 4 3 2 2 1 1 2 2 2 1 1 1 1 2 3 6 7 5 4 4 4 4 6 7 8 7 9 12 9 5 5 6 7 7 8 8 8 10 11 11
6 5 4 4 4 3 3 2 1 1 1 1 1 1 0 1 1 0 2 4 6 4 4 5 6 8 8 7 9 11 9 5 5 6 7 8 8 8 7 6 7 8 9
6 4 4 4 4 4 3 2 2 1 1 1 1 1 0 0 0 0 0 1 2 3 3 5 7 7 7 7 7 6 5 5 5 7 7 7 6 5 6 6 6 6 6
6 5 4 3 3 3 3 2 1 0 1 2 2 2 2 1 2 2 1 0 0 1 1 2 2 3 3 4 4 4 4 4 5 5 6 6 6 6 6 5 5 5 6
6 5 4 3 3 2 2 3 4 1 1 1 2 2 2 3 3 2 2 1 1 1 1 1 3 4 4 5 5 5 4 4 5 5 5 5 6 6 6 5 5 5 7
4 4 3 3 2 2 2 2 2 4 4 2 2 3 4 4 4 3 3 2 2 2 1 3 3 4 4 4 4 4 5 5 5 5 5 5 6 6 6 6 6 6 7
4 4 4 2 2 2 2 2 1 1 2 3 3 4 4 5 5 4 2 0 2 1 2 3 4 4 4 4 4 4 5 5 4 4 5 5 5 5 6 6 6 7 7
4 3 3 3 3 2 2 2 2 2 2 2 3 4 5 4 3 2 1 1 3 3 3 4 4 4 4 4 4 4 4 4 5 4 4 5 5 5 6 6 6 9 8
3 6 4 2 3 3 3 3 3 3 2 2 3 3 3 3 2 2 1 2 3 4 4 4 4 4 4 4 4 4 4 4 4 4 4 5 5 5 6 7 7 7 7
3 4 6 4 3 3 3 3 2 2 2 2 2 3 4 2 2 3 3 2 3 3 4 4 4 4 4 4 4 4 5 4 4 4 5 5 5 6 6 6 7 7 7
3 3 3 2 2 3 3 3 3 3 3 3 3 4 6 3 3 3 3 4 4 3 3 4 4 4 4 4 4 5 5 5 5 5 5 6 6 6 6 7 7 7 7
4 3 3 3 3 4 4 3 3 3 3 3 3 3 3 3 4 4 4 4 4 4 4 4 4 4 4 4 4 4 5 5 5 6 6 7 7 7 7 8 9 9 9
4 4 4 3 3 3 3 3 3 3 3 3 3 3 3 4 4 5 5 5 5 5 5 4 4 6 7 5 4 4 4 5 5 5 8 8 8 8 8 8 9 10 9
3 3 3 3 3 3 3 3 3 4 4 4 4 4 4 4 4 5 5 5 6 6 7 6 4 5 7 8 7 6 6 7 7 6 7 7 9 10 9 10 9 10 10
3 3 3 3 3 3 3 3 3 4 4 4 4 4 4 4 5 5 5 5 6 6 6 6 7 8 9 8 8 9 8 8 9 8 7 7 9 9 9 8 11 10 10
Wind_Direction
183 184 182 183 184 180 184 190 189 188 183 181 181 179 179 181 178 175 184 182 185 197 195 190 206 202 195 194 159 145 154 152 196 269 271 273 260 266 268 254 249 246 253
184 182 185 184 182 184 191 193 187 185 184 182 179 180 186 187 184 184 193 191 193 200 203 196 210 206 206 207 192 194 195 187 184 239 275 280 267 261 259 262 259 249 247
182 184 189 189 189 195 196 193 187 184 184 183 180 185 192 192 192 195 195 197 199 204 203 201 207 199 210 211 207 210 215 209 190 209 253 261 271 273 277 278 271 270 266
184 189 196 199 199 201 198 194 192 188 186 189 191 193 194 194 196 199 199 203 204 207 208 208 208 202 208 209 212 214 211 215 215 223 247 260 265 274 261 267 283 272 269
187 196 202 201 201 199 198 200 197 194 196 194 195 199 198 196 202 200 203 206 207 213 216 215 216 214 213 209 209 208 205 212 219 227 243 255 257 260 251 244 255 271 272
189 197 197 192 195 199 202 205 202 202 199 193 197 198 200 209 211 205 202 206 206 213 222 226 229 228 229 227 226 217 203 206 215 221 233 238 248 237 236 234 240 257 276
187 192 194 192 197 205 205 202 209 208 200 197 200 195 199 205 200 203 207 202 207 213 218 222 234 233 228 231 239 239 231 227 218 214 227 237 242 232 224 238 233 230 241
165 171 173 178 187 191 192 201 207 203 197 200 204 203 203 210 207 208 209 204 211 217 215 215 222 235 231 227 236 245 245 242 234 229 233 243 241 235 221 229 239 247 255
129 150 163 158 161 179 202 207 204 196 199 204 201 206 207 216 213 215 211 207 221 228 226 226 224 231 240 236 234 248 260 262 254 241 238 244 247 246 236 230 236 236 257
94 119 125 131 149 177 206 210 197 185 197 198 202 207 207 215 215 214 208 207 225 237 238 238 235 238 246 241 231 238 256 265 267 270 257 256 255 256 245 230 230 237 246
78 80 82 94 127 162 184 191 165 160 165 190 203 214 215 219 224 217 206 204 221 233 240 242 239 238 244 245 236 234 248 260 267 261 262 261 255 250 246 235 227 227 236
62 64 60 57 55 62 78 81 118 146 156 184 187 200 198 196 195 212 211 215 221 229 245 247 243 253 257 259 254 252 260 265 258 259 261 262 260 257 252 243 237 234 235
60 57 56 54 49 52 67 62 49 85 149 166 144 138 77 59 68 123 206 223 236 237 253 264 275 278 280 273 265 267 269 256 250 255 258 260 257 258 259 257 255 248 247
59 46 42 48 40 35 47 61 76 73 90 96 111 133 136 5 352 10 306 252 255 255 270 287 293 288 277 270 275 275 259 246 246 254 260 264 266 264 261 258 262 261 261
52 44 39 38 41 37 31 33 54 65 148 144 165 169 160 198 248 219 191 250 290 272 303 306 300 298 295 291 286 280 274 270 261 260 264 271 271 268 266 259 254 256 256
45 36 34 30 29 35 34 18 17 19 24 101 182 184 207 215 219 212 219 237 239 215 167 276 280 278 276 277 279 280 274 269 266 263 265 266 267 267 270 267 256 253 259
42 31 28 27 25 19 19 25 355 349 358 346 293 261 244 250 248 246 252 271 272 196 210 261 267 271 272 273 272 272 275 275 271 269 270 271 270 269 267 267 264 261 262
32 23 21 11 10 15 19 9 359 345 338 334 321 301 281 266 261 259 250 347 311 261 240 255 263 265 268 272 272 274 279 285 282 279 278 278 276 276 276 274 269 265 267
25 12 9 6 7 8 10 16 10 3 355 332 334 337 333 315 311 296 198 204 256 269 263 260 262 267 270 273 274 275 278 282 286 287 285 284 281 278 277 276 275 274 271
359 2 17 11 0 0 6 13 14 7 6 3 352 336 344 12 355 327 284 257 265 272 274 271 271 273 276 276 276 276 277 279 283 283 285 285 281 276 277 278 276 277 275
0 355 9 15 8 8 10 9 7 11 10 2 341 342 355 346 315 311 309 297 282 281 283 281 279 281 281 280 279 278 279 279 280 282 285 287 286 285 282 278 277 276 277
7 6 13 18 19 22 16 12 12 10 4 358 340 346 2 4 343 330 320 310 300 290 286 283 281 280 280 280 281 281 279 280 282 282 283 284 285 283 282 282 281 278 276
16 18 16 16 20 20 21 18 15 6 358 350 345 348 355 351 340 333 326 321 315 308 304 299 293 291 287 279 274 275 278 281 282 284 285 283 282 281 281 282 283 285 282
24 25 25 20 19 16 12 8 7 5 2 355 349 347 343 336 331 329 328 324 322 317 311 306 300 298 300 298 292 285 283 289 293 287 284 281 281 280 279 280 281 282 283
32 33 28 21 17 11 10 12 7 2 357 350 345 342 336 333 329 327 326 323 321 318 321 321 313 311 309 309 308 306 306 301 292 289 285 278 276 277 277 279 281 285 283
32 29 24 20 17 13 14 9 0 353 347 342 339 336 334 332 329 328 327 328 327 324 323 323 323 322 319 317 315 316 306 298 292 285 280 275 274 275 279 280 283 283 283